Time,TemperatureF,DewpointF,PressureIn,WindDirection,WindDirectionDegrees,WindSpeedMPH,WindSpeedGustMPH,Humidity,HourlyPrecipIn,Conditions,Clouds,dailyrainin,SoftwareType,DateUTC
2013-05-16 00:02:00,63.0,51.0,-100.00,SE,145,0.0,0.0,64,-99.99,,,-99.99,,2013-05-16 05:02:00,
2013-05-16 00:12:00,62.0,52.0,-100.00,WSW,240,0.0,0.0,69,-99.99,,,-99.99,,2013-05-16 05:12:00,
2013-05-16 00:22:00,62.0,52.0,-100.00,NE,35,0.0,0.0,69,-99.99,,,-99.99,,2013-05-16 05:22:00,
2013-05-16 00:32:00,62.0,52.0,-100.00,NE,35,0.0,0.0,69,-99.99,,,-99.99,,2013-05-16 05:32:00,
2013-05-16 00:42:00,61.0,51.0,-100.00,ESE,105,0.0,0.0,71,-99.99,,,-99.99,,2013-05-16 05:42:00,
2013-05-16 00:52:00,60.0,52.0,-100.00,NW,325,0.0,0.0,74,-99.99,,,-99.99,,2013-05-16 05:52:00,
2013-05-16 01:01:00,60.0,52.0,-100.00,NW,325,0.0,0.0,74,-99.99,,,-99.99,,2013-05-16 06:01:00,
2013-05-16 01:12:00,61.0,52.0,-100.00,NNE,15,0.0,0.0,72,-99.99,,,-99.99,,2013-05-16 06:12:00,
2013-05-16 01:22:00,60.0,51.0,-100.00,SE,125,0.0,0.0,72,-99.99,,,-99.99,,2013-05-16 06:22:00,
2013-05-16 01:33:00,60.0,51.0,-100.00,SE,125,0.0,0.0,72,-99.99,,,-99.99,,2013-05-16 06:33:00,
2013-05-16 01:43:00,60.0,52.0,-100.00,North,10,0.0,0.0,74,-99.99,,,-99.99,,2013-05-16 06:43:00,
2013-05-16 01:53:00,60.0,52.0,-100.00,NW,315,0.0,0.0,75,-99.99,,,-99.99,,2013-05-16 06:53:00,
2013-05-16 02:02:00,60.0,52.0,-100.00,NW,315,0.0,0.0,75,-99.99,,,-99.99,,2013-05-16 07:02:00,
2013-05-16 02:12:00,59.0,52.0,-100.00,SE,135,0.0,0.0,78,-99.99,,,-99.99,,2013-05-16 07:12:00,
2013-05-16 02:24:00,61.0,52.0,-100.00,ESE,120,0.0,0.0,71,-99.99,,,-99.99,,2013-05-16 07:24:00,
2013-05-16 02:34:00,61.0,52.0,-100.00,ESE,120,0.0,0.0,71,-99.99,,,-99.99,,2013-05-16 07:34:00,
2013-05-16 02:44:00,61.0,52.0,-100.00,North,0,0.0,0.0,73,-99.99,,,-99.99,,2013-05-16 07:44:00,
2013-05-16 02:54:00,61.0,51.0,-100.00,North,350,0.0,0.0,70,-99.99,,,-99.99,,2013-05-16 07:54:00,
2013-05-16 03:03:00,61.0,51.0,-100.00,North,350,0.0,0.0,70,-99.99,,,-99.99,,2013-05-16 08:03:00,
2013-05-16 03:13:00,63.0,50.0,-100.00,East,90,0.0,0.0,63,-99.99,,,-99.99,,2013-05-16 08:13:00,
2013-05-16 03:24:00,62.0,50.0,-100.00,NNW,335,0.0,0.0,66,-99.99,,,-99.99,,2013-05-16 08:24:00,
2013-05-16 03:34:00,62.0,50.0,-100.00,NNW,335,0.0,0.0,66,-99.99,,,-99.99,,2013-05-16 08:34:00,
2013-05-16 03:45:00,62.0,50.0,-100.00,SE,125,0.0,0.0,65,-99.99,,,-99.99,,2013-05-16 08:45:00,
2013-05-16 03:55:00,60.0,49.0,-100.00,WSW,255,0.0,0.0,66,-99.99,,,-99.99,,2013-05-16 08:55:00,
2013-05-16 04:04:00,60.0,49.0,-100.00,WSW,255,0.0,0.0,66,-99.99,,,-99.99,,2013-05-16 09:04:00,
2013-05-16 04:14:00,60.0,50.0,-100.00,SE,130,1.0,4.0,71,-99.99,,,-99.99,,2013-05-16 09:14:00,
2013-05-16 04:24:00,60.0,50.0,-100.00,SE,130,0.0,0.0,68,-99.99,,,-99.99,,2013-05-16 09:24:00,
2013-05-16 04:35:00,60.0,50.0,-100.00,SE,130,0.0,0.0,68,-99.99,,,-99.99,,2013-05-16 09:35:00,
2013-05-16 04:45:00,59.0,49.0,-100.00,SE,140,0.0,0.0,71,-99.99,,,-99.99,,2013-05-16 09:45:00,
2013-05-16 04:55:00,58.0,50.0,-100.00,SE,135,0.0,0.0,74,-99.99,,,-99.99,,2013-05-16 09:55:00,
2013-05-16 05:05:00,58.0,50.0,-100.00,SE,135,0.0,0.0,74,-99.99,,,-99.99,,2013-05-16 10:05:00,
2013-05-16 05:15:00,57.0,50.0,-100.00,SE,135,0.0,0.0,75,-99.99,,,-99.99,,2013-05-16 10:15:00,
2013-05-16 05:24:00,58.0,50.0,-100.00,NNW,340,0.0,2.0,75,-99.99,,,-99.99,,2013-05-16 10:24:00,
2013-05-16 05:36:00,58.0,50.0,-100.00,NNW,340,0.0,2.0,75,-99.99,,,-99.99,,2013-05-16 10:36:00,
2013-05-16 05:45:00,58.0,50.0,-100.00,East,100,0.0,0.0,76,-99.99,,,-99.99,,2013-05-16 10:45:00,
2013-05-16 05:56:00,58.0,51.0,-100.00,North,5,0.0,0.0,77,-99.99,,,-99.99,,2013-05-16 10:56:00,
2013-05-16 06:05:00,58.0,51.0,-100.00,North,5,0.0,0.0,77,-99.99,,,-99.99,,2013-05-16 11:05:00,
2013-05-16 06:14:00,56.0,51.0,-100.00,NW,310,0.0,0.0,84,-99.99,,,-99.99,,2013-05-16 11:14:00,
2013-05-16 06:25:00,56.0,51.0,-100.00,NNW,330,0.0,0.0,84,-99.99,,,-99.99,,2013-05-16 11:25:00,
2013-05-16 06:35:00,56.0,51.0,-100.00,NNW,330,0.0,0.0,84,-99.99,,,-99.99,,2013-05-16 11:35:00,
2013-05-16 06:46:00,58.0,52.0,-100.00,NNE,30,0.0,0.0,81,-99.99,,,-99.99,,2013-05-16 11:46:00,
2013-05-16 06:57:00,58.0,53.0,-100.00,SE,140,0.0,1.0,82,-99.99,,,-99.99,,2013-05-16 11:57:00,
2013-05-16 07:06:00,58.0,53.0,-100.00,SE,140,0.0,1.0,82,-99.99,,,-99.99,,2013-05-16 12:06:00,
2013-05-16 07:13:00,58.0,54.0,-100.00,WNW,285,0.0,0.0,84,-99.99,,,-99.99,,2013-05-16 12:13:00,
2013-05-16 07:23:00,61.0,53.0,-100.00,North,5,0.0,2.0,76,-99.99,,,-99.99,,2013-05-16 12:23:00,
2013-05-16 07:35:00,61.0,53.0,-100.00,North,5,0.0,2.0,76,-99.99,,,-99.99,,2013-05-16 12:35:00,
2013-05-16 07:45:00,61.0,54.0,-100.00,SE,125,0.0,0.0,78,-99.99,,,-99.99,,2013-05-16 12:45:00,
2013-05-16 07:53:00,61.0,56.0,-100.00,SSE,150,0.0,0.0,83,-99.99,,,-99.99,,2013-05-16 12:53:00,
2013-05-16 08:04:00,61.0,56.0,-100.00,SSE,150,0.0,0.0,83,-99.99,,,-99.99,,2013-05-16 13:04:00,
2013-05-16 08:12:00,63.0,55.0,-100.00,NW,320,0.0,1.0,75,-99.99,,,-99.99,,2013-05-16 13:12:00,
2013-05-16 08:26:00,62.0,55.0,-100.00,NNW,340,1.0,5.0,77,-99.99,,,-99.99,,2013-05-16 13:26:00,
2013-05-16 08:35:00,62.0,55.0,-100.00,NNW,340,1.0,5.0,77,-99.99,,,-99.99,,2013-05-16 13:35:00,
2013-05-16 08:43:00,64.0,55.0,-100.00,West,270,0.0,0.0,72,-99.99,,,-99.99,,2013-05-16 13:43:00,
2013-05-16 08:55:00,65.0,55.0,-100.00,NW,325,0.0,1.0,71,-99.99,,,-99.99,,2013-05-16 13:55:00,
2013-05-16 09:05:00,65.0,55.0,-100.00,NW,325,0.0,1.0,71,-99.99,,,-99.99,,2013-05-16 14:05:00,
2013-05-16 09:16:00,65.0,53.0,-100.00,NNW,340,0.0,2.0,64,-99.99,,,-99.99,,2013-05-16 14:16:00,
2013-05-16 09:23:00,66.0,55.0,-100.00,SSW,200,0.0,0.0,67,-99.99,,,-99.99,,2013-05-16 14:23:00,
2013-05-16 09:37:00,66.0,55.0,-100.00,SSW,200,0.0,0.0,67,-99.99,,,-99.99,,2013-05-16 14:37:00,
2013-05-16 09:47:00,68.0,56.0,-100.00,SE,135,0.0,0.0,65,-99.99,,,-99.99,,2013-05-16 14:47:00,
2013-05-16 09:56:00,68.0,52.0,-100.00,SSE,155,0.0,3.0,56,-99.99,,,-99.99,,2013-05-16 14:56:00,
2013-05-16 10:08:00,68.0,52.0,-100.00,SSE,155,0.0,3.0,56,-99.99,,,-99.99,,2013-05-16 15:08:00,
2013-05-16 10:17:00,69.0,51.0,-100.00,SSE,155,1.0,6.0,53,-99.99,,,-99.99,,2013-05-16 15:17:00,
2013-05-16 10:28:00,69.0,50.0,-100.00,SE,140,4.0,9.0,51,-99.99,,,-99.99,,2013-05-16 15:28:00,
2013-05-16 10:40:00,69.0,50.0,-100.00,SE,140,4.0,9.0,51,-99.99,,,-99.99,,2013-05-16 15:40:00,
2013-05-16 10:50:00,69.0,50.0,-100.00,SE,140,4.0,7.0,51,-99.99,,,-99.99,,2013-05-16 15:50:00,
2013-05-16 11:00:00,70.0,50.0,-100.00,SE,130,2.0,8.0,48,-99.99,,,-99.99,,2013-05-16 16:00:00,
2013-05-16 11:09:00,70.0,50.0,-100.00,SE,130,2.0,8.0,48,-99.99,,,-99.99,,2013-05-16 16:09:00,
2013-05-16 11:20:00,71.0,50.0,-100.00,East,85,1.0,9.0,48,-99.99,,,-99.99,,2013-05-16 16:20:00,
2013-05-16 11:30:00,73.0,50.0,-100.00,East,90,1.0,6.0,45,-99.99,,,-99.99,,2013-05-16 16:30:00,
2013-05-16 11:40:00,73.0,-99.9,-100.00,East,90,1.0,6.0,45,-99.99,,,-99.99,,2013-05-16 16:40:00,
2013-05-16 11:50:00,74.0,49.0,-100.00,East,95,1.0,9.0,42,-99.99,,,-99.99,,2013-05-16 16:50:00,
2013-05-16 12:01:00,75.0,47.0,-100.00,East,80,4.0,10.0,37,-99.99,,,-99.99,,2013-05-16 17:01:00,
2013-05-16 12:10:00,75.0,47.0,-100.00,East,80,4.0,10.0,37,-99.99,,,-99.99,,2013-05-16 17:10:00,
2013-05-16 12:20:00,77.0,44.0,-100.00,SE,125,9.0,13.0,31,-99.99,,,-99.99,,2013-05-16 17:20:00,
2013-05-16 12:50:00,-999.0,-99.9,-100.00,SE,130,8.0,14.0,29,-99.99,,,-99.99,,2013-05-16 17:50:00,
2013-05-16 13:00:00,-999.0,-99.9,-100.00,SE,145,1.0,10.0,32,-99.99,,,-99.99,,2013-05-16 18:00:00,
2013-05-16 13:10:00,78.0,46.0,-100.00,SE,145,1.0,10.0,32,-99.99,,,-99.99,,2013-05-16 18:10:00,
2013-05-16 13:20:00,80.0,44.0,-100.00,East,85,6.0,11.0,28,-99.99,,,-99.99,,2013-05-16 18:20:00,
2013-05-16 13:30:00,-999.0,-99.9,-100.00,ESE,105,1.0,15.0,28,-99.99,,,-99.99,,2013-05-16 18:30:00,
2013-05-16 13:40:00,-999.0,-99.9,-100.00,ESE,105,1.0,15.0,28,-99.99,,,-99.99,,2013-05-16 18:40:00,
2013-05-16 13:50:00,-999.0,-99.9,-100.00,SE,125,4.0,11.0,29,-99.99,,,-99.99,,2013-05-16 18:50:00,
2013-05-16 14:00:00,-999.0,-99.9,-100.00,ESE,115,1.0,10.0,26,-99.99,,,-99.99,,2013-05-16 19:00:00,
2013-05-16 14:10:00,81.0,43.0,-100.00,ESE,115,1.0,10.0,26,-99.99,,,-99.99,,2013-05-16 19:10:00,
2013-05-16 14:20:00,81.0,42.0,-100.00,SSE,150,4.0,8.0,25,-99.99,,,-99.99,,2013-05-16 19:20:00,
2013-05-16 14:51:00,-999.0,-99.9,-100.00,SE,130,10.0,17.0,26,-99.99,,,-99.99,,2013-05-16 19:51:00,
2013-05-16 15:01:00,-999.0,-99.9,-100.00,SE,135,9.0,16.0,24,-99.99,,,-99.99,,2013-05-16 20:01:00,
2013-05-16 15:10:00,-999.0,-99.9,-100.00,SE,135,9.0,16.0,24,-99.99,,,-99.99,,2013-05-16 20:10:00,
2013-05-16 15:20:00,82.0,-99.9,-100.00,SSE,150,6.0,14.0,24,-99.99,,,-99.99,,2013-05-16 20:20:00,
2013-05-16 15:30:00,82.0,-99.9,-100.00,SE,135,5.0,11.0,23,-99.99,,,-99.99,,2013-05-16 20:30:00,
2013-05-16 15:40:00,-999.0,-99.9,-100.00,SE,135,5.0,11.0,23,-99.99,,,-99.99,,2013-05-16 20:40:00,
2013-05-16 15:50:00,83.0,40.0,-100.00,ESE,115,4.0,14.0,22,-99.99,,,-99.99,,2013-05-16 20:50:00,
2013-05-16 16:00:00,83.0,-99.9,-100.00,ESE,105,5.0,13.0,24,-99.99,,,-99.99,,2013-05-16 21:00:00,
2013-05-16 16:10:00,83.0,-99.9,-100.00,ESE,105,5.0,13.0,24,-99.99,,,-99.99,,2013-05-16 21:10:00,
2013-05-16 16:20:00,84.0,-99.9,-100.00,ESE,110,1.0,11.0,24,-99.99,,,-99.99,,2013-05-16 21:20:00,
2013-05-16 16:29:00,83.0,41.0,-100.00,SE,135,7.0,14.0,23,-99.99,,,-99.99,,2013-05-16 21:29:00,
2013-05-16 16:38:00,83.0,41.0,-100.00,SE,135,7.0,14.0,23,-99.99,,,-99.99,,2013-05-16 21:38:00,
2013-05-16 16:50:00,83.0,-99.9,-100.00,SE,135,9.0,14.0,22,-99.99,,,-99.99,,2013-05-16 21:50:00,
2013-05-16 17:00:00,-999.0,-99.9,-100.00,SE,135,2.0,10.0,24,-99.99,,,-99.99,,2013-05-16 22:00:00,
2013-05-16 17:08:00,84.0,43.0,-100.00,SE,135,2.0,10.0,24,-99.99,,,-99.99,,2013-05-16 22:08:00,
2013-05-16 17:21:00,84.0,42.0,-100.00,East,100,2.0,9.0,23,-99.99,,,-99.99,,2013-05-16 22:21:00,
2013-05-16 17:30:00,84.0,41.0,-100.00,ESE,105,4.0,11.0,22,-99.99,,,-99.99,,2013-05-16 22:30:00,
2013-05-16 17:40:00,84.0,41.0,-100.00,ESE,105,4.0,11.0,22,-99.99,,,-99.99,,2013-05-16 22:40:00,
2013-05-16 17:50:00,84.0,44.0,-100.00,ESE,120,4.0,9.0,25,-99.99,,,-99.99,,2013-05-16 22:50:00,
2013-05-16 18:16:00,83.0,45.0,-100.00,SSE,160,4.0,10.0,26,-99.99,,,-99.99,,2013-05-16 23:16:00,
2013-05-16 18:24:00,82.0,49.0,-100.00,SE,145,4.0,11.0,31,-99.99,,,-99.99,,2013-05-16 23:24:00,
2013-05-16 18:35:00,82.0,49.0,-100.00,SE,145,4.0,11.0,31,-99.99,,,-99.99,,2013-05-16 23:35:00,
2013-05-16 18:45:00,82.0,48.0,-100.00,South,175,0.0,9.0,31,-99.99,,,-99.99,,2013-05-16 23:45:00,
2013-05-16 18:54:00,82.0,49.0,-100.00,SSE,155,0.0,7.0,32,-99.99,,,-99.99,,2013-05-16 23:54:00,
2013-05-16 19:02:00,82.0,49.0,-100.00,SSE,155,0.0,7.0,32,-99.99,,,-99.99,,2013-05-17 00:02:00,
2013-05-16 19:13:00,81.0,49.0,-100.00,SE,140,0.0,5.0,33,-99.99,,,-99.99,,2013-05-17 00:13:00,
2013-05-16 19:22:00,81.0,50.0,-100.00,SSE,150,1.0,5.0,33,-99.99,,,-99.99,,2013-05-17 00:22:00,
2013-05-16 19:33:00,81.0,50.0,-100.00,SSE,150,1.0,5.0,33,-99.99,,,-99.99,,2013-05-17 00:33:00,
2013-05-16 19:43:00,81.0,51.0,-100.00,SSE,160,0.0,3.0,36,-99.99,,,-99.99,,2013-05-17 00:43:00,
2013-05-16 19:53:00,80.0,51.0,-100.00,SE,145,0.0,0.0,37,-99.99,,,-99.99,,2013-05-17 00:53:00,
2013-05-16 20:03:00,80.0,51.0,-100.00,SE,145,0.0,0.0,37,-99.99,,,-99.99,,2013-05-17 01:03:00,
2013-05-16 20:12:00,79.0,53.0,-100.00,NE,40,0.0,0.0,41,-99.99,,,-99.99,,2013-05-17 01:12:00,
2013-05-16 20:23:00,78.0,54.0,-100.00,NW,315,0.0,1.0,44,-99.99,,,-99.99,,2013-05-17 01:23:00,
2013-05-16 20:32:00,78.0,54.0,-100.00,NW,315,0.0,1.0,44,-99.99,,,-99.99,,2013-05-17 01:32:00,
2013-05-16 20:43:00,76.0,55.0,-100.00,ESE,115,0.0,1.0,47,-99.99,,,-99.99,,2013-05-17 01:43:00,
2013-05-16 20:52:00,75.0,55.0,-100.00,SE,135,0.0,1.0,51,-99.99,,,-99.99,,2013-05-17 01:52:00,
2013-05-16 21:02:00,75.0,55.0,-100.00,SE,135,0.0,1.0,51,-99.99,,,-99.99,,2013-05-17 02:02:00,
2013-05-16 21:11:00,73.0,54.0,-100.00,East,100,0.0,2.0,51,-99.99,,,-99.99,,2013-05-17 02:11:00,
2013-05-16 21:22:00,72.0,54.0,-100.00,North,355,0.0,0.0,53,-99.99,,,-99.99,,2013-05-17 02:22:00,
2013-05-16 21:32:00,72.0,54.0,-100.00,North,355,0.0,0.0,53,-99.99,,,-99.99,,2013-05-17 02:32:00,
2013-05-16 21:42:00,72.0,54.0,-100.00,SE,140,0.0,1.0,53,-99.99,,,-99.99,,2013-05-17 02:42:00,
2013-05-16 21:53:00,70.0,55.0,-100.00,SW,225,0.0,0.0,58,-99.99,,,-99.99,,2013-05-17 02:53:00,
2013-05-16 22:02:00,70.0,55.0,-100.00,SW,225,0.0,0.0,58,-99.99,,,-99.99,,2013-05-17 03:02:00,
2013-05-16 22:11:00,71.0,54.0,-100.00,SE,135,0.0,2.0,54,-99.99,,,-99.99,,2013-05-17 03:11:00,
2013-05-16 22:22:00,72.0,54.0,-100.00,SE,125,0.0,0.0,53,-99.99,,,-99.99,,2013-05-17 03:22:00,
2013-05-16 22:34:00,72.0,54.0,-100.00,SE,125,0.0,0.0,53,-99.99,,,-99.99,,2013-05-17 03:34:00,
2013-05-16 22:43:00,70.0,53.0,-100.00,SE,140,1.0,4.0,55,-99.99,,,-99.99,,2013-05-17 03:43:00,
2013-05-16 22:53:00,70.0,54.0,-100.00,SE,135,0.0,4.0,56,-99.99,,,-99.99,,2013-05-17 03:53:00,
2013-05-16 23:02:00,70.0,54.0,-100.00,SE,135,0.0,4.0,56,-99.99,,,-99.99,,2013-05-17 04:02:00,
2013-05-16 23:13:00,70.0,54.0,-100.00,SE,140,1.0,4.0,57,-99.99,,,-99.99,,2013-05-17 04:13:00,
2013-05-16 23:23:00,70.0,54.0,-100.00,SSE,155,0.0,2.0,57,-99.99,,,-99.99,,2013-05-17 04:23:00,
2013-05-16 23:33:00,70.0,54.0,-100.00,SSE,155,0.0,2.0,57,-99.99,,,-99.99,,2013-05-17 04:33:00,
2013-05-16 23:43:00,69.0,54.0,-100.00,SE,140,0.0,0.0,58,-99.99,,,-99.99,,2013-05-17 04:43:00,
2013-05-16 23:53:00,69.0,54.0,-100.00,SE,130,0.0,0.0,58,-99.99,,,-99.99,,2013-05-17 04:53:00,